Wind_Speed
76 75 75 74 75 77 79 80 79 76 73 69 68 67 67 67 67 67 66 60 53 47 41 35 29 24 20 18 16 15 15 16 22 33 43 53 59 60 60 60 62 69 81
76 77 76 75 75 77 78 79 78 75 72 69 67 67 66 66 66 66 64 59 53 47 40 35 28 23 19 17 15 13 13 14 18 27 37 47 54 57 57 57 58 62 72
76 78 76 75 75 76 78 79 78 74 71 68 67 66 65 65 65 65 64 58 52 47 40 34 28 23 18 15 13 12 11 12 15 23 32 42 49 53 54 54 54 57 64
75 78 77 76 75 76 77 78 77 74 70 67 66 65 65 64 64 64 63 57 52 47 41 34 28 23 18 15 12 11 9 10 13 19 27 36 43 49 50 51 51 53 59
75 77 78 76 75 75 76 77 76 74 70 66 65 64 64 63 63 62 62 58 52 47 41 34 28 23 18 15 12 10 9 8 11 15 23 30 38 44 47 48 49 50 54
74 76 77 76 75 74 75 76 75 73 69 65 64 63 63 62 62 61 62 58 52 47 41 35 29 23 20 16 13 11 9 6 8 12 18 25 32 39 43 45 45 47 50
72 75 77 77 75 74 74 75 75 73 69 65 63 62 62 61 60 60 60 57 51 45 40 34 29 25 21 18 15 12 9 6 6 9 15 22 28 34 39 41 43 43 47
71 74 76 76 75 73 73 74 74 72 69 65 62 61 60 60 59 58 58 56 50 44 39 34 29 25 22 19 16 14 11 8 5 6 12 18 25 30 35 38 40 42 46
70 72 74 75 74 72 72 73 73 72 69 65 62 60 59 59 58 56 56 55 50 44 38 34 29 25 22 20 18 15 13 10 6 4 8 14 21 27 32 36 38 41 46
68 70 73 74 73 72 71 71 72 71 69 65 61 59 58 57 57 55 54 54 50 44 38 33 29 25 22 20 19 17 15 12 8 4 4 10 17 23 29 33 36 40 47
67 69 71 73 72 71 70 70 70 70 68 65 61 58 57 56 55 54 53 53 50 45 39 32 28 25 22 20 19 18 15 13 10 6 1 6 13 20 26 31 36 40 46
66 67 69 71 71 70 68 68 69 69 68 64 60 57 56 55 54 53 51 50 49 45 40 33 28 25 22 20 19 18 16 14 11 8 4 5 11 17 24 30 35 39 45
65 65 67 69 69 68 67 66 67 67 67 64 60 56 54 54 53 52 50 48 48 46 41 36 29 25 22 20 18 17 15 14 11 9 6 7 11 16 23 30 36 40 45
65 64 65 67 67 67 65 64 65 65 65 64 60 56 53 52 51 50 48 47 46 46 42 37 32 26 22 19 17 15 14 12 10 8 7 8 12 17 23 31 36 40 43
64 62 63 64 66 65 63 63 63 64 65 64 61 56 52 50 50 49 48 46 44 44 44 39 34 28 23 19 16 14 13 11 9 8 7 8 13 19 25 32 37 40 43
62 61 61 62 63 63 62 61 61 62 64 63 61 56 52 49 49 49 47 45 43 43 43 41 36 30 24 19 15 13 11 9 8 7 8 9 14 20 26 32 36 39 43
61 59 59 60 61 61 60 59 59 60 62 62 60 55 51 48 47 47 47 45 43 42 41 41 39 33 26 20 15 11 9 7 7 7 8 11 15 21 26 32 36 39 43
59 57 57 58 58 58 57 56 56 57 59 59 59 55 50 47 45 46 46 44 42 40 40 40 39 36 29 22 15 11 7 5 5 6 8 11 16 21 26 31 36 39 44
57 55 55 55 55 56 55 54 54 55 56 57 57 55 50 46 44 43 44 43 42 40 38 39 39 38 33 25 17 10 6 3 4 6 9 12 16 21 25 29 34 39 43
55 53 53 53 53 53 52 51 51 52 53 54 54 53 50 46 43 42 42 42 41 39 38 37 38 38 35 29 20 11 5 1 4 7 10 13 16 20 24 28 32 38 42
53 51 50 50 50 50 50 49 48 49 50 52 52 52 49 45 42 40 40 41 41 39 38 37 37 37 36 31 23 14 6 2 6 9 12 14 17 20 24 27 30 35 40
51 49 48 47 47 47 47 46 46 46 47 49 50 51 49 45 41 39 38 39 40 39 37 36 36 37 36 33 27 18 9 3 7 12 15 17 19 21 24 26 29 33 38
50 47 46 45 44 44 44 43 43 43 45 46 48 48 48 44 41 38 37 38 38 38 37 36 35 36 36 35 31 23 13 5 7 13 17 20 21 23 25 27 29 32 36
48 45 43 42 41 41 41 41 40 41 42 44 45 46 46 44 40 37 36 36 37 37 37 36 35 35 36 36 34 28 19 8 6 14 19 23 24 25 26 27 29 32 36
45 43 41 39 38 38 38 38 38 38 39 41 43 44 45 43 40 37 35 35 36 36 36 35 34 34 35 36 35 32 25 14 4 12 20 24 27 28 28 28 30 32 35
44 41 38 37 36 36 35 35 35 36 37 38 40 42 43 42 39 36 34 33 34 35 35 35 34 34 35 35 35 34 29 20 8 8 18 25 29 30 30 30 31 32 35
Wind_Direction
349 348 346 345 345 345 347 349 350 350 350 349 349 349 349 349 350 351 351 350 349 346 343 338 331 324 314 306 298 289 274 252 229 220 216 213 212 213 213 214 215 216 215
349 349 347 346 346 346 348 350 351 352 351 351 351 351 351 351 352 353 353 352 351 350 347 343 337 330 321 311 303 292 277 256 234 221 217 214 213 212 213 214 215 216 215
349 349 348 347 347 347 349 351 353 353 353 352 352 352 353 353 354 355 355 354 354 353 351 348 344 338 330 319 311 300 281 257 235 220 217 214 213 212 212 214 215 217 215
348 349 349 348 347 348 349 352 354 355 354 353 353 354 354 354 355 356 357 357 357 356 354 352 349 346 340 330 321 311 289 258 233 220 215 213 213 212 212 214 216 217 216
347 349 349 348 348 348 350 352 354 356 356 355 354 355 355 356 356 357 358 359 360 359 358 356 354 352 349 342 333 323 304 266 236 220 213 211 212 212 212 214 216 217 215
347 348 349 348 348 349 350 352 355 356 357 356 355 356 357 357 357 358 359 1 1 1 0 360 359 359 356 353 345 334 320 288 241 221 212 210 211 211 212 214 215 216 214
346 347 348 348 348 349 350 352 355 357 358 357 356 357 358 358 359 360 1 2 2 2 3 3 4 5 5 2 357 348 334 310 259 228 216 211 210 210 211 213 214 214 211
345 347 348 348 348 349 350 352 355 357 358 358 358 358 358 359 360 1 2 3 3 3 4 6 7 8 9 8 5 359 351 337 296 242 219 210 207 208 209 210 212 210 206
344 345 347 347 348 348 350 352 355 357 358 359 359 359 359 360 0 1 2 4 4 4 6 8 10 11 13 13 12 9 4 356 338 278 221 208 205 205 206 207 208 205 201
342 344 346 347 347 348 349 351 354 357 358 359 359 359 0 0 1 1 3 4 5 6 7 9 11 12 15 17 17 16 13 9 2 341 230 207 202 200 200 200 200 197 194
341 342 344 346 346 347 348 350 353 356 358 360 360 360 0 1 1 2 3 4 6 7 8 8 10 13 15 17 19 18 18 19 20 16 334 194 193 192 191 191 190 189 188
339 340 342 344 345 346 347 350 352 356 358 360 0 0 1 1 2 2 3 4 6 7 9 9 10 12 13 15 17 18 21 24 28 33 64 150 175 182 183 182 181 181 181
337 338 340 343 344 345 346 348 351 354 357 359 0 1 1 1 2 2 3 4 6 7 8 10 10 10 12 12 14 18 22 27 33 44 76 128 157 169 173 174 174 175 177
334 336 338 341 342 343 345 347 350 353 356 358 0 1 1 2 2 3 4 5 6 8 8 9 10 9 10 11 13 17 23 30 41 57 85 127 150 161 166 168 168 169 172
331 333 336 338 340 342 343 346 349 352 355 358 360 1 1 2 2 3 4 6 7 8 10 10 9 9 8 10 12 17 24 34 49 69 97 128 149 158 163 165 165 167 170
327 330 333 336 338 340 341 344 347 350 354 357 360 1 1 2 3 3 4 5 7 8 10 11 10 9 8 9 12 18 26 39 56 82 110 134 149 157 161 163 164 166 168
323 327 329 333 336 338 340 342 345 349 352 356 359 1 1 1 2 4 4 5 6 8 9 10 10 9 8 8 11 17 29 46 67 96 122 141 152 158 161 163 165 166 168
319 323 326 329 333 336 338 340 344 347 351 354 358 0 1 1 2 3 4 4 5 6 8 9 10 10 9 7 7 13 26 51 82 114 134 148 157 162 164 166 167 169 169
315 318 322 326 330 334 336 338 342 346 349 353 356 359 1 1 1 3 4 4 5 5 6 7 9 10 10 8 6 7 18 58 115 135 149 157 163 168 170 170 170 171 171
310 314 318 322 326 331 334 336 340 344 348 351 355 358 360 0 1 2 3 4 4 4 5 6 7 9 10 9 6 1 359 57 163 162 163 166 170 173 176 175 174 174 174
305 310 314 318 323 328 331 334 338 342 346 350 354 357 359 360 0 1 2 3 3 4 5 5 6 7 9 9 7 1 347 255 192 183 178 175 176 178 180 179 177 177 178
301 305 309 314 320 325 329 332 336 340 344 348 352 356 358 360 360 0 1 2 3 3 4 4 5 6 8 8 7 3 349 275 207 194 188 184 182 183 184 184 182 181 181
297 300 305 310 316 322 326 329 334 338 342 346 350 354 357 359 360 360 0 1 2 3 3 4 4 5 6 7 7 5 357 311 220 201 195 191 189 187 187 187 185 184 184
293 296 300 306 313 319 323 327 331 336 340 345 349 353 356 358 359 359 360 1 1 2 3 3 4 4 5 7 7 7 3 344 235 208 200 195 193 191 190 189 188 187 186
289 292 296 302 310 316 320 324 329 334 338 343 348 352 355 358 359 359 359 0 1 1 2 3 4 4 5 5 6 7 7 359 289 214 204 199 196 194 192 191 190 189 189
285 288 292 299 307 313 317 321 326 332 336 341 346 351 354 357 359 359 359 360 0 1 1 2 3 4 4 5 5 7 7 6 350 225 207 202 198 196 194 193 192 192 192
Height
5656 5640 5625 5609 5593 5576 5558 5540 5521 5503 5485 5468 5452 5435 5419 5402 5386 5369 5352 5336 5321 5309 5298 5289 5282 5276 5272 5269 5266 5264 5262 5262 5264 5269 5275 5285 5296 5309 5323 5336 5348 5361 5376
5649 5634 5618 5602 5586 5570 5552 5534 5516 5498 5480 5463 5447 5432 5415 5399 5383 5367 5350 5334 5320 5308 5297 5287 5280 5274 5270 5267 5264 5262 5261 5261 5262 5266 5272 5281 5292 5304 5316 5329 5340 5351 5364
5644 5628 5612 5597 5581 5564 5547 5529 5511 5494 5476 5459 5444 5428 5413 5397 5381 5365 5349 5334 5320 5307 5296 5287 5279 5273 5268 5265 5263 5261 5260 5260 5261 5264 5269 5277 5287 5298 5310 5322 5332 5343 5355
5638 5623 5607 5592 5576 5560 5542 5525 5507 5490 5473 5457 5441 5426 5411 5395 5379 5364 5350 5334 5320 5307 5296 5287 5279 5273 5268 5265 5263 5261 5259 5259 5260 5262 5267 5274 5283 5294 5305 5316 5326 5336 5347
5634 5618 5603 5587 5571 5555 5538 5521 5504 5487 5470 5454 5439 5424 5409 5393 5379 5364 5350 5334 5320 5308 5297 5288 5280 5274 5269 5265 5263 5261 5260 5259 5259 5261 5265 5271 5279 5289 5299 5309 5319 5329 5340
5629 5614 5598 5582 5567 5551 5535 5518 5501 5485 5468 5453 5438 5423 5407 5393 5378 5363 5348 5334 5321 5310 5299 5290 5282 5276 5271 5267 5264 5262 5260 5259 5259 5261 5264 5269 5276 5284 5294 5303 5313 5322 5333
5624 5609 5594 5578 5563 5548 5532 5516 5499 5483 5467 5452 5437 5422 5407 5393 5379 5365 5350 5336 5324 5313 5303 5293 5285 5279 5273 5269 5266 5263 5261 5260 5260 5261 5263 5267 5273 5280 5289 5298 5307 5316 5327
5619 5605 5590 5575 5560 5545 5529 5513 5497 5481 5466 5451 5437 5422 5408 5394 5380 5367 5353 5340 5327 5316 5306 5297 5289 5282 5277 5272 5268 5265 5263 5261 5260 5260 5262 5265 5270 5276 5283 5292 5301 5311 5320
5615 5601 5587 5572 5557 5542 5526 5511 5495 5480 5465 5450 5436 5422 5408 5394 5381 5368 5356 5343 5330 5319 5309 5301 5293 5286 5281 5276 5272 5268 5265 5263 5261 5261 5261 5263 5267 5272 5279 5287 5296 5305 5316
5611 5597 5583 5569 5554 5539 5524 5509 5494 5478 5463 5449 5435 5421 5408 5395 5382 5370 5358 5347 5334 5323 5313 5304 5297 5290 5285 5280 5275 5272 5268 5265 5263 5262 5262 5263 5266 5270 5276 5283 5292 5301 5312
5606 5593 5580 5566 5551 5537 5522 5508 5493 5478 5463 5449 5435 5421 5409 5396 5384 5372 5360 5349 5337 5326 5316 5308 5301 5294 5289 5284 5279 5275 5272 5268 5266 5264 5263 5264 5266 5269 5275 5282 5290 5299 5311
5601 5589 5576 5563 5549 5535 5520 5506 5492 5477 5463 5449 5435 5422 5410 5398 5386 5374 5362 5351 5340 5330 5320 5312 5304 5298 5293 5288 5283 5279 5275 5272 5269 5267 5266 5266 5268 5271 5276 5282 5290 5300 5311
5596 5585 5572 5560 5546 5532 5519 5505 5491 5477 5463 5449 5436 5424 5412 5400 5388 5376 5365 5355 5344 5333 5323 5315 5307 5301 5296 5291 5287 5283 5279 5276 5273 5271 5270 5270 5271 5274 5279 5285 5293 5302 5313
5591 5580 5568 5556 5544 5530 5517 5504 5490 5477 5463 5450 5437 5425 5413 5402 5391 5380 5369 5358 5348 5337 5327 5318 5310 5304 5299 5294 5290 5287 5283 5280 5278 5276 5275 5275 5276 5279 5284 5290 5298 5306 5317
5585 5575 5564 5552 5541 5528 5515 5502 5489 5476 5463 5451 5438 5426 5415 5404 5393 5382 5372 5361 5351 5341 5331 5322 5314 5308 5302 5298 5294 5290 5287 5284 5282 5281 5280 5280 5282 5285 5290 5295 5303 5311 5321
5579 5569 5559 5548 5537 5525 5513 5500 5488 5475 5462 5449 5437 5425 5414 5404 5393 5383 5372 5362 5353 5344 5335 5326 5318 5311 5305 5300 5296 5293 5291 5289 5287 5286 5286 5286 5288 5291 5296 5301 5308 5316 5325
5572 5563 5554 5544 5533 5522 5510 5498 5486 5474 5461 5449 5437 5425 5414 5404 5394 5384 5374 5365 5356 5347 5338 5330 5321 5313 5307 5302 5299 5296 5294 5292 5291 5291 5291 5292 5294 5297 5302 5307 5314 5321 5329
5565 5556 5548 5538 5528 5518 5507 5495 5484 5472 5461 5448 5437 5425 5415 5405 5395 5386 5376 5367 5358 5349 5342 5333 5325 5317 5310 5305 5301 5298 5297 5296 5295 5295 5296 5297 5299 5303 5307 5312 5318 5325 5333
5556 5549 5541 5532 5523 5514 5503 5492 5481 5470 5459 5448 5436 5425 5415 5405 5396 5387 5378 5369 5360 5352 5344 5336 5328 5320 5313 5307 5302 5300 5298 5298 5298 5298 5300 5301 5304 5307 5311 5316 5322 5329 5336
5547 5541 5534 5526 5518 5509 5499 5489 5479 5468 5458 5447 5436 5425 5414 5405 5396 5388 5379 5371 5363 5354 5346 5339 5331 5323 5316 5309 5304 5301 5300 5299 5300 5301 5302 5305 5308 5311 5315 5320 5325 5332 5339
5537 5532 5526 5519 5512 5504 5495 5485 5475 5466 5456 5446 5435 5425 5415 5405 5397 5389 5381 5373 5365 5356 5348 5341 5333 5326 5318 5311 5306 5302 5300 5300 5300 5302 5304 5307 5310 5314 5318 5322 5328 5334 5341
5527 5522 5517 5511 5505 5498 5489 5481 5472 5463 5454 5444 5434 5424 5414 5405 5397 5389 5381 5374 5366 5358 5350 5343 5335 5328 5321 5314 5307 5302 5299 5299 5300 5301 5304 5308 5311 5315 5319 5324 5330 5336 5343
5516 5513 5508 5503 5498 5491 5484 5476 5468 5459 5451 5442 5432 5423 5414 5405 5396 5389 5381 5374 5367 5359 5352 5344 5337 5330 5322 5315 5308 5303 5299 5297 5298 5300 5303 5307 5311 5316 5320 5325 5331 5337 5343
5505 5502 5499 5495 5490 5485 5478 5471 5463 5456 5448 5439 5431 5422 5413 5404 5396 5388 5381 5374 5367 5360 5353 5345 5338 5331 5324 5317 5309 5303 5298 5295 5295 5297 5300 5305 5310 5314 5320 5325 5331 5337 5343
5494 5492 5489 5486 5482 5478 5472 5465 5459 5452 5444 5437 5428 5420 5411 5403 5395 5388 5381 5374 5367 5360 5353 5346 5339 5332 5325 5318 5311 5304 5298 5294 5292 5293 5296 5301 5307 5312 5318 5324 5330 5336 5343
5483 5482 5480 5478 5474 5470 5465 5459 5453 5447 5441 5434 5426 5418 5410 5402 5394 5387 5380 5374 5367 5361 5354 5347 5340 5333 5326 5319 5312 5305 5298 5293 5290 5290 5292 5297 5303 5309 5315 5322 5328 5335 5341